Airfield :
LOGIN :

Register | Disclaimer

   EN    FR    IT 

 










Legend :    VFR   Marginal VFR   IFR   Intensive IFR   Very Intensive IFR
Visi :
Ceiling :
>= 8 km
>= 3000ft
5 to 8 km
1000 to 3000 ft
1500m to 5 km
500 to 1000 ft
800 to 1500m
200 to 500 ft
< 800m
< 200 ft
Symbols :   Thunderstorms  Fog  Heavy snow  Heavy precipitations  Wind > 20 kt
SIGMETs :     Misc.  Thunderstorms  Icing  Turbulence  Mountain Waves  Volcanic Ashes







- Airport Elevation : 313 ft
- Download approach charts


LFQA - Reims-Prunay

CURRENT METAR :
  • 220200Z AUTO 26006KT CAVOK 12/06 Q1022

EXPIRED METARs :
  • 220130Z AUTO 26005KT CAVOK 12/06 Q1022
  • 220100Z AUTO 26004KT CAVOK 12/06 Q1022
  • 220030Z AUTO 24003KT CAVOK 11/05 Q1022
  • 220000Z AUTO 24005KT CAVOK 10/05 Q1022

TAF N/A
No reported NOTAMs for that airfield.
1 SIGMET reported for the Paris FIR (LFFF) :
 
Severe turbulence
LFFF SIGMET 5 VALID 212300/220300 LFPW
LFFF PARIS FIR/UIR SEV TURB FCST N OF LINE N4915 E00545 - N5015 E00015 FL160/260 MOV E 20KT NC=



MET'MAP, your aeronautical weather chart ! - Copyright ORBIFLY December 2007 - Disclaimer

ORBIFLY MET'MAP TEAM :

Programming & Development : Alexandra Zaïnal
Concept & Development : Baudouin d'Aumeries
Co-Development & Prog : Marc-Olivier Méhu
Technical & hardware support : Manuel Goepfert

Contact : metmap@orbifly.com




SOURCES & CREDITS :

   NOAA